{"data":{"norad_id":54073,"epoch":"2026-05-24T23:05:59.233632Z","epoch_age_seconds":88355,"freshness":"FRESH","line1":"1 54073U 22136Y   26144.96249113 -.00000686  00000+0 -24997-4 0  9991","line2":"2 54073  53.2124 356.3758 0001603  86.7498 273.3677 15.08838862198436","mean_motion":15.08838862,"eccentricity":0.0001603,"inclination_deg":53.2124,"raan_deg":356.3758,"arg_perigee_deg":86.7498,"mean_anomaly_deg":273.3677,"bstar":-2.4997e-5,"rev_number":19843,"period_min":95.437626658903,"perigee_km":538.63793059309,"apogee_km":540.85580416097,"semimajor_km":6917.883867377,"source":"CELESTRAK","updated_at":"2026-05-25T13:38:17.651789Z"}}